TimeEDT,TemperatureF,Dew PointF,Humidity,Sea Level PressureIn,VisibilityMPH,Wind Direction,Wind SpeedMPH,Gust SpeedMPH,PrecipitationIn,Events,Conditions,WindDirDegrees,DateUTC
12:52 AM,36.0,28.9,76,29.84,10.0,SW,4.6,-,N/A,,Clear,230,2013-03-21 04:52:00
1:52 AM,37.0,30.0,76,29.85,10.0,SW,6.9,-,N/A,,Scattered Clouds,220,2013-03-21 05:52:00
2:52 AM,37.0,30.9,79,29.83,10.0,SW,3.5,-,N/A,,Overcast,230,2013-03-21 06:52:00
3:52 AM,32.0,28.9,88,29.82,10.0,Calm,Calm,-,N/A,,Partly Cloudy,0,2013-03-21 07:52:00
5:52 AM,28.9,27.0,92,29.79,10.0,Calm,Calm,-,N/A,,Clear,0,2013-03-21 09:52:00
6:52 AM,28.0,25.0,88,29.79,10.0,Calm,Calm,-,N/A,,Clear,0,2013-03-21 10:52:00
7:52 AM,34.0,28.9,82,29.79,10.0,NNE,4.6,-,N/A,,Partly Cloudy,20,2013-03-21 11:52:00
8:52 AM,37.9,26.1,62,29.78,10.0,NNE,4.6,-,N/A,,Mostly Cloudy,20,2013-03-21 12:52:00
9:52 AM,39.0,23.0,53,29.77,10.0,NE,6.9,-,N/A,,Overcast,40,2013-03-21 13:52:00
10:10 AM,39.2,24.8,56,29.76,10.0,NNE,9.2,-,N/A,,Overcast,30,2013-03-21 14:10:00
10:32 AM,39.2,23.0,52,29.75,10.0,NE,10.4,-,N/A,,Mostly Cloudy,50,2013-03-21 14:32:00
10:52 AM,39.9,24.1,53,29.75,10.0,NE,9.2,-,N/A,,Partly Cloudy,40,2013-03-21 14:52:00
11:52 AM,39.9,24.1,53,29.71,10.0,NNE,8.1,-,N/A,,Mostly Cloudy,30,2013-03-21 15:52:00
12:52 PM,37.9,24.1,57,29.69,10.0,NE,12.7,18.4,N/A,,Overcast,40,2013-03-21 16:52:00
1:52 PM,39.0,25.0,57,29.66,10.0,NNE,10.4,18.4,N/A,,Overcast,30,2013-03-21 17:52:00
2:10 PM,37.4,26.6,65,29.65,4.0,Variable,6.9,17.3,0.00,Snow,Light Snow,0,2013-03-21 18:10:00
2:35 PM,37.4,26.6,65,29.64,10.0,NNE,9.2,17.3,0.00,,Overcast,20,2013-03-21 18:35:00
2:52 PM,37.0,26.1,65,29.64,10.0,NNE,8.1,21.9,0.00,,Overcast,30,2013-03-21 18:52:00
3:52 PM,37.9,28.9,70,29.62,10.0,North,11.5,20.7,N/A,,Mostly Cloudy,10,2013-03-21 19:52:00
4:50 PM,37.4,28.4,70,29.59,10.0,North,10.4,20.7,N/A,,Mostly Cloudy,10,2013-03-21 20:50:00
4:52 PM,37.0,28.0,70,29.60,10.0,NNE,12.7,20.7,N/A,,Mostly Cloudy,20,2013-03-21 20:52:00
5:06 PM,37.4,28.4,70,29.58,10.0,NNE,10.4,20.7,N/A,,Scattered Clouds,20,2013-03-21 21:06:00
5:45 PM,35.6,28.4,75,29.59,10.0,NNE,10.4,17.3,N/A,,Mostly Cloudy,20,2013-03-21 21:45:00
5:52 PM,36.0,28.0,73,29.60,10.0,NNE,10.4,19.6,N/A,,Mostly Cloudy,20,2013-03-21 21:52:00
6:52 PM,36.0,28.9,76,29.60,10.0,Variable,5.8,17.3,N/A,,Overcast,0,2013-03-21 22:52:00
7:52 PM,36.0,30.0,79,29.59,10.0,Variable,6.9,16.1,N/A,,Overcast,0,2013-03-21 23:52:00
8:52 PM,36.0,30.0,79,29.60,10.0,Variable,3.5,-,N/A,,Overcast,0,2013-03-22 00:52:00
9:52 PM,34.0,30.9,89,29.59,3.0,North,6.9,-,0.02,Snow,Light Snow,350,2013-03-22 01:52:00
10:00 PM,33.8,30.2,87,29.58,2.5,North,6.9,-,0.00,Snow,Light Snow,350,2013-03-22 02:00:00
10:06 PM,33.8,30.2,87,29.58,1.8,Variable,5.8,-,0.01,Snow,Light Snow,0,2013-03-22 02:06:00
10:15 PM,33.8,30.2,87,29.58,1.5,North,4.6,-,0.01,Snow,Light Snow,350,2013-03-22 02:15:00
10:52 PM,33.1,30.9,92,29.58,1.2,Variable,4.6,-,0.05,Snow,Light Snow,0,2013-03-22 02:52:00
11:52 PM,33.1,32.0,96,29.57,1.2,NNW,4.6,-,0.06,Snow,Light Snow,330,2013-03-22 03:52:00